This is the latest recevied weather packets stored in our database for station/object SQ7IQO. If no packets are shown the sender has not sent any weather packets the latest 10 day(s).
| Time | Temp. | Humidity | Pressure | Rain* | Wind** | Luminosity | Snow |
|---|---|---|---|---|---|---|---|
| 1787665596 | 23.89° C | 50% | 1020.9 hPa | 0 mm | 0 m/s | - | - |
| 1787665536 | 23.33° C | 50% | 1020.9 hPa | 0 mm | 0 m/s | - | - |
| 1787665476 | 23.89° C | 49% | 1020.9 hPa | 0 mm | 0.45 m/s, ° | - | - |
| 1787665416 | 23.89° C | 49% | 1020.9 hPa | 0 mm | 0 m/s | - | - |
| 1787665356 | 23.33° C | 47% | 1020.9 hPa | 0 mm | 0 m/s | - | - |
| 1787665296 | 23.89° C | 46% | 1020.9 hPa | 0 mm | 0 m/s | - | - |
| 1787665236 | 23.33° C | 49% | 1020.9 hPa | 0 mm | 0 m/s | - | - |
| 1787665176 | 22.78° C | 47% | 1020.9 hPa | 0 mm | 0 m/s | - | - |
| 1787665116 | 22.78° C | 49% | 1020.9 hPa | 0 mm | 0 m/s | - | - |
| 1787665056 | 22.78° C | 47% | 1020.9 hPa | 0 mm | 0.45 m/s, ° | - | - |
| 1787664996 | 23.89° C | 50% | 1020.9 hPa | 0 mm | 0.45 m/s, ° | - | - |
| 1787664936 | 23.33° C | 51% | 1020.9 hPa | 0 mm | 0 m/s | - | - |
| 1787664876 | 22.78° C | 52% | 1020.9 hPa | 0 mm | 0 m/s | - | - |
| 1787664816 | 22.22° C | 52% | 1021 hPa | 0 mm | 0 m/s | - | - |
| 1787664756 | 22.22° C | 53% | 1021 hPa | 0 mm | 0 m/s | - | - |
| 1787664696 | 22.22° C | 52% | 1021 hPa | 0 mm | 0 m/s | - | - |
| 1787664636 | 21.67° C | 55% | 1021 hPa | 0 mm | 0 m/s | - | - |
| 1787664576 | 21.67° C | 56% | 1021 hPa | 0 mm | 0 m/s | - | - |
| 1787664516 | 21.67° C | 52% | 1021 hPa | 0 mm | 0 m/s | - | - |
| 1787664456 | 21.67° C | 52% | 1021 hPa | 0 mm | 0 m/s | - | - |
| 1787664396 | 22.22° C | 50% | 1021 hPa | 0 mm | 0 m/s | - | - |
| 1787664336 | 23.33° C | 48% | 1021 hPa | 0 mm | 0.45 m/s, ° | - | - |
| 1787664276 | 23.89° C | 50% | 1021 hPa | 0 mm | 0.45 m/s, ° | - | - |
| 1787664216 | 23.89° C | 49% | 1021 hPa | 0 mm | 0 m/s | - | - |
| 1787664156 | 23.33° C | 49% | 1020.9 hPa | 0 mm | 0 m/s | - | - |
* Rain latest hour (hover to see other rain measurements)
** Current wind speed in m/s (hover to see current wind gust speed)